My Profile
  1. Member Settings
  2. My Devices
  3. Sign Out
        More Settings
      Elev 850 ft, 34.723 °N 82.452 °W

      Golden Grove, SC

      Summary

      Temperature (°F)MaxAverageMin
      Max Temperature6856.7246
      Avg Temperature63.1647.2733.81
      Min Temperature6139.3127
      Precipitation (in)MaxAverageMinSum
      Precipitation0.280.0200.71
      Dew Point (°F)MaxAverageMin
      Dew Point59.8434.6711.25
      Wind (mph)MaxAverageMin
      Wind2113.096
      Gust Wind2920.6616
      Sea Level Pressure (in)MaxAverageMin
      Sea Level Pressure29.629.1228.66

      Daily Observations

      DateTemp High/LowDew Pt High/LowHumidityWindMax WindWind GustPressurePrecip.Condition
      12/1/2023 54 °F / 39 °F 52 °F / 30 °F 86 % 6 mph - 29.09 in 0 in
      12/2/2023 64 °F / 50 °F 61 °F / 50 °F 96 % 10 mph - 28.98 in 0.24 in
      12/3/2023 68 °F / 54 °F 64 °F / 45 °F 86 % 18 mph - 28.82 in 0.04 in
      12/4/2023 64 °F / 43 °F 41 °F / 28 °F 59 % 18 mph - 28.91 in 0 in
      12/5/2023 59 °F / 36 °F 37 °F / 30 °F 56 % 14 mph - 29 in 0 in
      12/6/2023 54 °F / 36 °F 34 °F / 25 °F 57 % 17 mph - 29.14 in 0 in
      12/7/2023 57 °F / 28 °F 28 °F / 25 °F 62 % 12 mph - 29.18 in 0 in
      12/8/2023 61 °F / 39 °F 37 °F / 27 °F 53 % 15 mph - 29.12 in 0 in
      12/9/2023 54 °F / 50 °F 54 °F / 39 °F 86 % 6 mph - 29.15 in 0 in
      12/10/2023 61 °F / 43 °F 59 °F / 39 °F 94 % 21 mph - 28.84 in 0.21 in
      12/11/2023 52 °F / 34 °F 34 °F / 25 °F 62 % 13 mph - 29.04 in 0 in
      12/12/2023 52 °F / 30 °F 30 °F / 25 °F 60 % 8 mph - 29.45 in 0 in
      12/13/2023 61 °F / 32 °F 30 °F / 19 °F 51 % 7 mph - 29.53 in 0 in
      12/14/2023 55 °F / 37 °F 30 °F / 18 °F 42 % 13 mph - 29.61 in 0 in
      12/15/2023 57 °F / 30 °F 30 °F / 19 °F 52 % 7 mph - 29.46 in 0 in
      12/16/2023 57 °F / 36 °F 32 °F / 25 °F 48 % 14 mph - 29.31 in 0 in
      12/17/2023 54 °F / 43 °F 52 °F / 34 °F 84 % 21 mph - 28.86 in 0.21 in
      12/18/2023 59 °F / 37 °F 43 °F / 10 °F 49 % 21 mph - 28.76 in 0 in
      12/19/2023 45 °F / 28 °F 18 °F / 9 °F 42 % 15 mph - 29.26 in 0 in
      12/20/2023 52 °F / 27 °F 21 °F / 14 °F 50 % 6 mph - 29.4 in 0 in
      12/21/2023 61 °F / 30 °F 28 °F / 14 °F 43 % 7 mph - 29.37 in 0 in
      12/22/2023 61 °F / 37 °F 30 °F / 18 °F 46 % 8 mph - 29.32 in 0 in
      12/23/2023 63 °F / 37 °F 43 °F / 28 °F 59 % 7 mph - 29.33 in 0 in
      12/24/2023 64 °F / 43 °F 50 °F / 37 °F 65 % 9 mph - 29.29 in 0 in
      12/25/2023 57 °F / 52 °F 57 °F / 50 °F 95 % 14 mph - 29.12 in 0 in
      12/26/2023 59 °F / 54 °F 57 °F / 54 °F 99 % 18 mph - 28.95 in 0.01 in
      12/27/2023 61 °F / 48 °F 55 °F / 41 °F 92 % 12 mph - 28.85 in 0 in
      12/28/2023 55 °F / 39 °F 39 °F / 30 °F 65 % 15 mph - 28.81 in 0 in
      12/29/2023 46 °F / 30 °F 30 °F / 25 °F 66 % 17 mph - 28.83 in 0 in
      12/30/2023 50 °F / 34 °F 32 °F / 28 °F 66 % 15 mph - 28.98 in 0 in
      12/31/2023 55 °F / 28 °F 32 °F / 27 °F 62 % 17 mph - 29.05 in 0 in
      essentialaccessibility.com
      We recognize our responsibility to use data and technology for good. We may use or share your data with our data vendors. Take control of your data.
      Glossary